User: anonymous
Location: Unspecified
(0.0000°N, 0.0000°E)
Time: 06:36:34
(UTC+02:00)
Language:

ARIANE 5 DEB (SYLDA) - Orbit

View from above orbital plane
View from above orbital plane
View from above satellite
View from above satellite

Ground track
Ground track

The orbit data is extracted from the following two-line orbital elements,

1 32770U 08018D   14245.00118075  .05967119 -62318-5  63718-2 0  8411
2 32770 001.4072 220.6771 2603481 108.3787 289.7596 10.46663774 76494
Epoch (UTC): 02 September 2014 00:01:42
Eccentricity: 0.2603481
inclination: 1.4072°
perigee height: 151 km
apogee height: 4748 km
right ascension of ascending node: 220.6771°
argument of perigee: 108.3787°
revolutions per day: 10.46663774
mean anomaly at epoch: 289.7596°
orbit number at epoch: 7649

The dashed part of the orbit path shows where the satellite is in the earth's shadow,  

DLR